Location: Ch�tillon
(48.8024°N, 2.2935°E)
Time: 08:11:27
(UTC+00:00)

Cosmos 1908 - Pass Details

Date: 16 October 2021
Orbit: 509 x 528 km, 82.5° (Epoch: 02 December)

Event Time Altitude Azimuth Distance (km) Brightness Sun altitude
Rises 17:40:54 0° 163° (SSE) 2,655 6.7 -7.6°
Reaches altitude 10° 17:43:12 10° 153° (SSE) 1,770 5.7 -8.0°
Maximum altitude 17:46:37 30° 91° (E) 962 4.0 -8.6°
Drops below altitude 10° 17:50:03 10° 29° (NNE) 1,776 5.6 -9.1°
Sets 17:52:22 0° 19° (NNE) 2,667 6.6 -9.5°
